[[{"header":{"parameterUnit":"m.s-1","parameterCategory":1,"la1":30.2991,"la2":30.254,"lo1":-89.0895,"lo2":-89.0444,"dy":0.0017,"dx":0.0017,"nx":28,"ny":28,"refTime":"2025-02-10T03:00:00:Z","depth":0,"parameterNumber":2,"parameterNumberName":"U-component_of_WINDS"},"data":[0,0,0,0,0,0,0,0,0,0,0,0,0,0,0,0,0,0,0,0,0,0,0,0,0,0,0,0,0,0,0,0,0,0,0,0,0,0,0,0,0,0,0,0,0,0,0,0,0,0,0,0,0,0,0,0,0,0,-1.9441,-1.944,0,-1.9427,-1.9426,-1.9426,-1.9412,-1.9412,-1.9412,-1.9411,-1.9396,-1.9396,-1.9395,0,0,0,0,0,0,0,0,0,0,0,0,0,-1.9453,-1.9453,-1.9441,-1.944,-1.944,-1.9427,-1.9426,-1.9426,-1.9412,-1.9412,-1.9412,-1.9411,-1.9396,-1.9396,-1.9395,0,0,0,0,0,0,0,0,0,0,0,0,0,-1.9444,-1.9453,-1.9441,-1.9432,-1.9431,-1.9427,-1.9426,-1.9426,-1.9412,-1.9412,-1.9411,-1.9411,-1.9396,-1.9396,-1.9395,-1.9399,0,0,-1.9394,-1.9394,0,0,0,0,0,0,0,0,-1.9445,-1.9444,-1.9433,-1.9432,-1.9431,-1.9421,-1.9425,-1.9417,-1.9412,-1.9419,-1.9411,-1.9411,-1.9404,-1.9403,-1.9401,-1.9398,-1.9398,-1.9394,-1.9394,-1.9394,-1.9394,0,0,0,0,0,0,0,-1.9445,-1.9444,-1.9435,-1.9433,-1.9432,-1.9428,-1.9426,-1.9424,-1.9413,-1.9418,-1.9417,-1.9416,-1.9404,-1.9402,-1.9401,-1.9397,-1.9394,-1.9394,-1.9394,-1.9394,-1.9395,-1.9395,0,0,0,0,0,0,-1.9448,-1.9445,-1.9435,-1.9435,-1.9437,-1.9428,-1.9426,-1.9424,-1.9413,-1.9412,-1.9416,-1.9415,-1.9402,-1.9401,-1.94,-1.9403,-1.9394,-1.9394,-1.9393,-1.9395,-1.9395,-1.9395,0,0,0,0,0,0,-1.9448,-1.9447,-1.9436,-1.9439,-1.9438,-1.9428,-1.9426,-1.9424,-1.9422,-1.9412,-1.941,-1.9416,-1.9402,-1.9401,-1.9399,-1.9402,-1.9393,-1.9393,-1.9395,-1.9395,-1.9395,-1.9408,0,0,0,0,0,0,-1.9448,-1.9447,-1.9449,-1.944,-1.9438,-1.9436,-1.9426,-1.9424,-1.9422,-1.942,-1.9411,-1.9409,-1.9402,-1.94,-1.9399,-1.9401,-1.9393,-1.9394,-1.9395,-1.9395,-1.9408,-1.9409,-1.941,0,0,0,0,0,-1.9449,-1.9453,-1.9449,-1.9448,-1.944,-1.9436,-1.9435,-1.9427,-1.9422,-1.9423,-1.9416,-1.941,-1.9402,-1.94,-1.9399,-1.9401,-1.9394,-1.9395,-1.9395,-1.9407,-1.9409,-1.941,0,0,0,0,0,0,-1.9463,-1.9452,-1.9447,-1.9449,-1.9443,-1.9434,-1.9435,-1.9429,-1.9425,-1.9424,-1.9413,-1.9411,-1.941,-1.9406,-1.9403,-1.9403,-1.9397,-1.9397,-1.9406,-1.9408,-1.9409,-1.941,-1.9393,0,0,0,0,0,-1.9466,-1.9465,-1.9455,-1.9457,-1.9455,-1.9446,-1.9444,-1.9438,-1.9432,-1.9429,-1.9422,-1.9416,-1.9412,-1.941,-1.9406,-1.9407,-1.9404,-1.9408,-1.9409,-1.9411,-1.9411,-1.941,-1.9411,-1.9397,-1.9397,-1.9397,0,0,-1.9473,-1.9467,-1.9466,-1.946,-1.9455,-1.9453,-1.9444,-1.9442,-1.944,-1.9429,-1.9427,-1.9421,-1.9414,-1.9413,-1.9413,-1.9409,-1.9414,-1.9411,-1.9412,-1.9412,-1.941,-1.9412,-1.9413,-1.9398,-1.9398,-1.9397,0,0,-1.9484,-1.948,-1.9481,-1.9476,-1.9469,-1.9462,-1.9463,-1.9454,-1.945,-1.9447,-1.9438,-1.9436,-1.943,-1.9424,-1.9421,-1.9429,-1.9422,-1.9428,-1.9435,-1.9434,-1.9435,-1.9436,-1.9438,-1.9438,-1.9428,-1.9428,-1.9428,0,-1.9493,-1.949,-1.9482,-1.948,-1.9477,-1.9467,-1.9467,-1.9463,-1.9455,-1.9452,-1.9449,-1.944,-1.9434,-1.9432,-1.9434,-1.9432,-1.9431,-1.9428,-1.9435,-1.9436,-1.9437,-1.9438,-1.9439,-1.9429,-1.9429,-1.9428,-1.9428,0,-1.9501,-1.9499,-1.9501,-1.9493,-1.949,-1.949,-1.948,-1.9478,-1.9472,-1.9466,-1.9463,-1.9456,-1.945,-1.9449,-1.9443,-1.9445,-1.9443,-1.9438,-1.9431,-1.9439,-1.944,-1.9441,-1.943,-1.9429,-1.9429,-1.9429,0,0,-1.9521,-1.9508,-1.9509,-1.9505,-1.9496,-1.9494,-1.9492,-1.9486,-1.9484,-1.9479,-1.9476,-1.9471,-1.9466,-1.9462,-1.9455,-1.9454,-1.946,-1.9449,-1.9448,-1.945,-1.946,-1.9464,-1.9465,-1.9455,-1.9455,-1.9455,-1.946,0,-1.953,-1.9527,-1.9519,-1.9518,-1.9516,-1.9506,-1.9504,-1.9498,-1.9492,-1.9488,-1.9481,-1.9477,-1.9471,-1.9468,-1.9467,-1.9459,-1.9461,-1.9459,-1.9452,-1.9452,-1.9454,-1.9466,-1.947,-1.9475,-1.9461,-1.9461,-1.9461,0,-1.954,-1.9535,-1.9534,-1.9524,-1.9523,-1.9522,-1.9515,-1.9512,-1.9505,-1.95,-1.9495,-1.9488,-1.9485,-1.9479,-1.9474,-1.9472,-1.9469,-1.9465,-1.9464,-1.9463,-1.9457,-1.9464,-1.9477,-1.9477,-1.9462,-1.9462,-1.9462,0,-1.9553,-1.9546,-1.9545,-1.9542,-1.953,-1.953,-1.9525,-1.9517,-1.9514,-1.9508,-1.9505,-1.9499,-1.9495,-1.949,-1.948,-1.9477,-1.9476,-1.947,-1.9471,-1.9472,-1.9471,-1.9471,-1.9483,-1.947,-1.947,-1.947,-1.947,0,-1.9563,-1.9563,-1.955,-1.9549,-1.9548,-1.9539,-1.9538,-1.9532,-1.9525,-1.9522,-1.9512,-1.9509,-1.9498,-1.9493,-1.9486,-1.9482,-1.9481,-1.9476,-1.9474,-1.9477,-1.9477,-1.9474,-1.9473,-1.947,-1.947,-1.947,-1.947,0,-1.9578,-1.9569,-1.9567,-1.9556,-1.9554,-1.9553,-1.9544,-1.9542,-1.9535,-1.9531,-1.953,-1.9519,-1.9513,-1.9503,-1.9494,-1.9489,-1.9487,-1.9484,-1.9489,-1.9488,-1.949,-1.949,-1.9499,-1.95,-1.9488,-1.9488,-1.9488,0,-1.9584,-1.9584,-1.9573,-1.9571,-1.9566,-1.9563,-1.9559,-1.9549,-1.9546,-1.9536,-1.9535,-1.9529,-1.9523,-1.9514,-1.9505,-1.9498,-1.9494,-1.9498,-1.9493,-1.9495,-1.9493,-1.9493,-1.9492,-1.9499,-1.9499,-1.9499,-1.9499,0,-1.9597,-1.9593,-1.9588,-1.9582,-1.9578,-1.9573,-1.9567,-1.9565,-1.9554,-1.955,-1.9544,-1.954,-1.9531,-1.9524,-1.9515,-1.9509,-1.9502,-1.9501,-1.9501,-1.9503,-1.9506,-1.9504,-1.9492,-1.9501,-1.9501,-1.9501,-1.95,-1.95,-1.9607,-1.9606,-1.9598,-1.9593,-1.9587,-1.9582,-1.9579,-1.9572,-1.9567,-1.956,-1.9554,-1.9548,-1.9539,-1.9527,-1.9522,-1.9516,-1.9513,-1.9513,-1.9513,-1.9513,-1.9514,-1.9508,-1.9515,-1.9515,-1.9515,-1.9515,-1.9515,0,-1.9618,-1.9613,-1.9608,-1.96,-1.9596,-1.959,-1.9583,-1.958,-1.9575,-1.9568,-1.9562,-1.9555,-1.9548,-1.9538,-1.953,-1.9528,-1.9524,-1.9526,-1.9526,-1.9524,-1.9517,-1.9518,-1.9529,-1.9529,-1.9529,-1.9529,-1.9529,-1.9529,-1.9623,-1.9621,-1.9615,-1.9609,-1.9604,-1.9598,-1.9595,-1.9589,-1.9583,-1.9576,-1.957,-1.9564,-1.9555,-1.9547,-1.954,-1.9537,-1.9534,-1.9537,-1.9533,-1.9526,-1.9525,-1.9524,-1.9524,-1.9537,-1.9537,-1.954,-1.954,-1.954]},{"header":{"parameterUnit":"m.s-1","parameterCategory":1,"la1":30.2991,"la2":30.254,"lo1":-89.0895,"lo2":-89.0444,"dy":0.0017,"dx":0.0017,"nx":28,"ny":28,"refTime":"2025-02-10T03:00:00:Z","depth":0,"parameterNumber":3,"parameterNumberName":"V-component_of_WINDS"},"data":[0,0,0,0,0,0,0,0,0,0,0,0,0,0,0,0,0,0,0,0,0,0,0,0,0,0,0,0,0,0,0,0,0,0,0,0,0,0,0,0,0,0,0,0,0,0,0,0,0,0,0,0,0,0,0,0,0,0,4.4415,4.4417,0,4.4614,4.4617,4.4619,4.4666,4.4665,4.4664,4.4663,4.4864,4.487,4.4877,0,0,0,0,0,0,0,0,0,0,0,0,0,4.4074,4.408,4.4415,4.4417,4.442,4.4614,4.4617,4.4619,4.4667,4.4665,4.4663,4.4662,4.4862,4.4869,4.4877,0,0,0,0,0,0,0,0,0,0,0,0,0,4.4242,4.4082,4.4414,4.4467,4.4473,4.4613,4.4617,4.462,4.4667,4.4665,4.4663,4.4661,4.4859,4.4869,4.4878,4.4979,0,0,4.4909,4.4913,0,0,0,0,0,0,0,0,4.4233,4.4255,4.4457,4.4463,4.4471,4.4614,4.457,4.474,4.4668,4.4593,4.4663,4.466,4.4782,4.4798,4.484,4.4989,4.4997,4.4909,4.4915,4.492,4.4922,0,0,0,0,0,0,0,4.4221,4.4247,4.4493,4.4459,4.4468,4.448,4.4502,4.4603,4.4696,4.46,4.4604,4.4627,4.4785,4.483,4.4845,4.5,4.4909,4.4918,4.4924,4.4928,4.5246,4.5248,0,0,0,0,0,0,4.4201,4.4237,4.4487,4.4499,4.4345,4.4488,4.4512,4.457,4.4695,4.4713,4.4628,4.4628,4.4814,4.4833,4.4852,4.4982,4.492,4.4929,4.4935,4.5244,4.5247,4.5249,0,0,0,0,0,0,4.4193,4.4222,4.4479,4.4369,4.4403,4.4496,4.456,4.4575,4.4619,4.4717,4.4734,4.4657,4.4813,4.4838,4.4948,4.4989,4.4933,4.4942,4.5241,4.5244,4.5248,4.524,0,0,0,0,0,0,4.4183,4.422,4.4259,4.437,4.4409,4.4572,4.4563,4.458,4.4637,4.4639,4.4748,4.4764,4.4814,4.4933,4.4958,4.5002,4.495,4.5237,4.5242,4.5247,4.5237,4.5243,4.5248,0,0,0,0,0,4.4171,4.4247,4.426,4.429,4.446,4.4575,4.4597,4.4653,4.464,4.468,4.4744,4.4761,4.498,4.4944,4.4973,4.502,4.5235,4.5241,4.5246,4.5234,4.5241,4.5248,0,0,0,0,0,0,4.4136,4.4262,4.4279,4.4393,4.4473,4.4582,4.4635,4.4658,4.4742,4.4741,4.4806,4.483,4.4937,4.4989,4.4947,4.5126,4.5107,4.5119,4.5088,4.5096,4.5102,4.5088,4.4958,0,0,0,0,0,4.4142,4.4225,4.4331,4.4421,4.4461,4.4541,4.4593,4.463,4.4715,4.4748,4.4819,4.4901,4.4989,4.5045,4.513,4.5244,4.527,4.529,4.5296,4.53,4.531,4.5378,4.5389,4.5268,4.5268,4.5268,0,0,4.4154,4.4234,4.4282,4.4416,4.4483,4.4568,4.4569,4.4658,4.4723,4.4762,4.4872,4.4927,4.5022,4.5135,4.5188,4.5182,4.5349,4.5307,4.531,4.5318,4.5385,4.5396,4.5406,4.5272,4.5271,4.527,0,0,4.4222,4.4289,4.4374,4.4441,4.4543,4.4596,4.4616,4.4723,4.4762,4.4874,4.4906,4.4983,4.5131,4.5199,4.5253,4.5349,4.537,4.5375,4.5405,4.547,4.5479,4.5488,4.5526,4.5538,4.5384,4.5384,4.5384,0,4.4225,4.4355,4.4414,4.4504,4.4563,4.4604,4.4692,4.4753,4.4877,4.4917,4.4908,4.5098,4.5165,4.5296,4.532,4.5361,4.5388,4.5364,4.5473,4.5483,4.5492,4.5529,4.5542,4.5384,4.5384,4.5384,4.5384,0,4.4355,4.4446,4.4502,4.4623,4.4688,4.4776,4.4849,4.4908,4.4939,4.4994,4.5108,4.519,4.5295,4.5328,4.5358,4.5465,4.5459,4.546,4.5444,4.5503,4.5539,4.5553,4.5385,4.5385,4.5385,4.5385,0,0,4.4406,4.4561,4.4581,4.4638,4.4754,4.4825,4.4915,4.502,4.507,4.5154,4.5233,4.5359,4.5363,4.5424,4.5462,4.5519,4.5595,4.5515,4.5518,4.553,4.5722,4.5722,4.5737,4.5608,4.5611,4.5613,4.5715,0,4.449,4.4655,4.4712,4.4848,4.4934,4.4975,4.5054,4.5134,4.5188,4.5268,4.5327,4.5417,4.5413,4.5451,4.5509,4.5573,4.5635,4.5566,4.5684,4.5687,4.5662,4.5755,4.5755,4.5847,4.5729,4.5731,4.5733,0,4.461,4.4699,4.4844,4.4953,4.4991,4.5062,4.5164,4.524,4.5332,4.5367,4.5437,4.5472,4.5569,4.5545,4.5681,4.5633,4.5684,4.5724,4.5729,4.5744,4.5716,4.5776,4.5878,4.5893,4.5755,4.5753,4.5752,0,4.4638,4.4793,4.4901,4.4948,4.5076,4.5126,4.5181,4.5271,4.5332,4.542,4.5461,4.5558,4.5613,4.5688,4.5749,4.5725,4.5881,4.5861,4.5914,4.5913,4.5947,4.5945,4.6061,4.5975,4.5974,4.5974,4.5974,0,4.4727,4.4815,4.4916,4.4982,4.5083,4.5148,4.5245,4.5303,4.5384,4.5463,4.5503,4.5576,4.5651,4.5735,4.5783,4.589,4.5913,4.5945,4.5958,4.5944,4.594,4.598,4.5976,4.5978,4.5977,4.5976,4.5976,0,4.4775,4.4845,4.4967,4.5079,4.511,4.5179,4.5276,4.5343,4.5399,4.5499,4.5526,4.5614,4.5715,4.5783,4.591,4.5943,4.6061,4.607,4.603,4.6037,4.6088,4.6084,4.6237,4.6262,4.6155,4.6156,4.6157,0,4.4829,4.4898,4.502,4.5077,4.5133,4.5223,4.5286,4.5353,4.5417,4.5529,4.5583,4.5686,4.5773,4.5932,4.6007,4.6106,4.612,4.6167,4.6135,4.6121,4.6126,4.6122,4.6131,4.6173,4.6174,4.6174,4.6175,0,4.4919,4.4951,4.504,4.5143,4.5218,4.5301,4.5385,4.5429,4.551,4.558,4.5685,4.5752,4.5885,4.5988,4.6095,4.6152,4.6179,4.6184,4.6203,4.6191,4.6167,4.6184,4.6048,4.6181,4.618,4.618,4.618,4.6179,4.4974,4.5039,4.5136,4.5235,4.5306,4.5384,4.5454,4.552,4.5609,4.5723,4.5757,4.5866,4.5959,4.6106,4.6165,4.6252,4.6248,4.6273,4.628,4.6287,4.6289,4.615,4.6271,4.6271,4.6271,4.6271,4.6271,0,4.5069,4.5134,4.5225,4.5342,4.5421,4.5439,4.5534,4.5598,4.5695,4.578,4.5866,4.5988,4.6089,4.6173,4.6278,4.6332,4.6346,4.6357,4.6355,4.6369,4.6285,4.626,4.6344,4.6344,4.6344,4.6344,4.6344,4.6344,4.5128,4.5241,4.5285,4.5433,4.5497,4.5607,4.566,4.5733,4.5802,4.5937,4.6022,4.6076,4.6162,4.6274,4.6368,4.639,4.6428,4.6437,4.6462,4.6382,4.6374,4.6367,4.6344,4.6444,4.6444,4.654,4.6541,4.6541]}]]